User: anonymous   Login
Location: Cimarron National Grasslands
(37.1250°N, 101.7500°W)
Time: 23:37:34
(UTC-05:00)
Language:

Ariane Rocket - Orbit

View from above orbital plane
View from above orbital plane
View from above satellite
View from above satellite

Ground track
Ground track

The orbit data is extracted from the following two-line orbital elements,

1 23561U 95021B   15214.81743646  .00000142  00000-0  62634-4 0  9998
2 23561 098.7335 191.2168 0007994 119.5741 301.5889 14.37620794 62914
Epoch (UTC): 02 August 2015 19:37:06
Eccentricity: 0.0007994
inclination: 98.7335°
perigee height: 760 km
apogee height: 772 km
right ascension of ascending node: 191.2168°
argument of perigee: 119.5741°
revolutions per day: 14.37620794
mean anomaly at epoch: 301.5889°
orbit number at epoch: 6291

The dashed part of the orbit path shows where the satellite is in the earth's shadow,  

DLR